Overview Statistics Trail Chart Weather Telemetry Raw packets
 

This is the latest recevied weather packets stored in our database for station/object OE5RBO. If no packets are shown the sender has not sent any weather packets the latest 10 day(s).

<< 24 25 26 27 28 29 30 >>
Time Temp. Humidity Pressure Rain* Wind** Luminosity Snow
1788229970 17.22° C 86% 1022.3 hPa 0 mm - - -
1788229370 17.22° C 86% 1022.3 hPa 0 mm - - -
1788228770 16.67° C 87% 1022.2 hPa 0 mm - - -
1788227569 16.67° C 90% 1022.2 hPa 0 mm - - -
1788226968 16.67° C 89% 1022.3 hPa 0 mm - - -
1788226368 16.67° C 88% 1022.3 hPa 0 mm - - -
1788225768 16.67° C 87% 1022.2 hPa 0 mm - - -
1788224567 17.22° C 85% 1022 hPa 0 mm - - -
1788223981 17.22° C 86% 1021.9 hPa 0 mm - - -
1788223366 17.22° C 86% 1021.8 hPa 0 mm - - -
1788222766 17.22° C 86% 1021.8 hPa 0 mm - - -
1788222166 17.78° C 85% 1021.7 hPa 0 mm - - -
1788221565 17.78° C 84% 1021.6 hPa 0 mm - - -
1788220965 17.78° C 84% 1021.6 hPa 0 mm - - -
1788219764 17.78° C 84% 1021.3 hPa 0 mm - - -
1788219164 18.33° C 84% 1021.3 hPa 0 mm - - -
1788218564 17.78° C 85% 1021.1 hPa 0 mm - - -
1788217363 18.33° C 86% 1021 hPa 1.52 mm - - -
1788216762 18.33° C 82% 1021 hPa 1.52 mm - - -
1788216162 18.33° C 82% 1020.9 hPa 1.52 mm - - -
1788215561 18.33° C 82% 1020.8 hPa 1.52 mm - - -
1788214961 18.89° C 83% 1020.8 hPa 1.52 mm - - -
1788214361 18.89° C 81% 1020.8 hPa 1.52 mm - - -
1788213160 18.89° C 80% 1020.2 hPa 1.52 mm - - -
1788212560 19.44° C 80% 1020.1 hPa 1.52 mm - - -

* Rain since midnight (hover to see other rain measurements)
** Current wind speed in m/s (hover to see current wind gust speed)